KTXEAGLE7 Weather Reports


Display with metric or nautical units.
time (UTC)temp
F
wind
direction
speed
MPH
gust
MPH
rain 1hr
in
rain 24hr
in
rain mn
in
humidity
%
barometer
mb
20260906064528 80 231 2.0 4.0 0.00 0.00 0.00 96 1013.2
20260906063022 80 231 2.0 3.0 0.00 0.00 0.00 96 1013.3
20260906061519 79 222 2.0 5.0 0.00 0.00 0.00 96 1013.2
20260906060019 80 218 3.0 4.0 0.00 0.00 0.00 96 1013.2
20260906054517 79 182 2.0 4.0 0.00 0.00 0.00 96 1013.1
20260906053015 80 182 3.0 4.0 0.00 0.00 0.00 95 1012.9
20260906051512 80 190 3.0 6.0 0.00 0.00 0.00 95 1013.0
20260906050135 80 191 2.0 4.0 0.00 0.00 0.00 95 1013.2
20260906044510 80 177 1.0 4.0 0.00 0.00 0.00 95 1013.3
20260906043011 80 142 0.0 0.0 0.00 0.00 0.00 94 1013.4
20260906041510 80 142 0.0 0.0 0.00 0.00 0.00 94 1013.6
20260906040009 80 142 0.0 0.0 0.00 0.00 0.00 94 1013.4
20260906034508 80 142 0.0 0.0 0.00 0.00 0.00 93 1013.3
20260906033008 80 142 0.0 0.0 0.00 0.00 0.00 92 1013.2
20260906031506 80 142 0.0 0.0 0.00 0.00 0.00 91 1013.3
20260906030006 81 142 0.0 4.0 0.00 0.00 0.00 90 1013.2
20260906024507 81 142 3.0 5.0 0.00 0.00 0.00 88 1012.8
20260906023008 82 153 3.0 5.0 0.00 0.00 0.00 87 1012.6
20260906021504 82 123 2.0 4.0 0.00 0.00 0.00 86 1012.3
20260906020004 82 108 2.0 3.0 0.00 0.00 0.00 85 1012.0
20260906014508 83 114 3.0 7.0 0.00 0.00 0.00 84 1011.9
20260906013008 83 97 2.0 4.0 0.00 0.00 0.00 84 1011.5
20260906011503 84 121 2.0 6.0 0.00 0.00 0.00 83 1011.5
20260906010002 84 116 3.0 7.0 0.00 0.00 0.00 80 1011.4
20260906004502 85 129 3.0 9.0 0.00 0.00 0.00 78 1011.5
20260906003004 86 131 6.0 9.0 0.00 0.00 0.00 77 1011.5
20260906001500 87 101 5.0 10.0 0.00 0.00 0.00 75 1011.8
20260906000101 87 132 4.0 10.0 0.00 0.00 0.00 74 1011.8
20260905234614 88 123 7.0 10.0 0.00 0.00 0.00 73 1011.6
20260905233100 88 142 7.0 11.0 0.00 0.00 0.00 73 1011.7
20260905231559 89 121 9.0 13.0 0.00 0.00 0.00 71 1011.7
20260905230058 90 134 8.0 15.0 0.00 0.00 0.00 67 1011.4
20260905224602 91 129 11.0 16.0 0.00 0.00 0.00 65 1011.3
20260905223057 90 131 7.0 13.0 0.00 0.00 0.00 70 1011.3
20260905221556 90 134 8.0 12.0 0.00 0.00 0.00 70 1011.3
20260905220055 90 122 8.0 13.0 0.00 0.00 0.00 68 1011.3
20260905214604 92 150 8.0 16.0 0.00 0.00 0.00 63 1011.3
20260905213053 92 128 10.0 16.0 0.00 0.00 0.00 62 1011.4
20260905211551 93 151 13.0 18.0 0.00 0.00 0.00 61 1011.4
20260905210050 94 113 7.0 13.0 0.00 0.00 0.00 58 1011.4
20260905204549 94 146 6.0 14.0 0.00 0.00 0.00 57 1011.4
20260905203046 94 134 5.0 9.0 0.00 0.00 0.00 56 1011.7
20260905201542 92 52 1.0 9.0 0.00 0.00 0.00 61 1011.9
20260905200045 94 161 3.0 7.0 0.00 0.00 0.00 60 1012.3
20260905194536 93 324 1.0 9.0 0.00 0.00 0.00 59 1012.5
20260905193033 92 132 4.0 9.0 0.00 0.00 0.00 60 1013.0
20260905191532 92 178 4.0 10.0 0.00 0.00 0.00 62 1013.1
20260905190030 92 275 4.0 8.0 0.00 0.00 0.00 63 1013.2
20260905184535 91 300 2.0 9.0 0.00 0.00 0.00 64 1013.2
20260905183028 91 115 4.0 9.0 0.00 0.00 0.00 66 1013.4
20260905181523 91 181 4.0 9.0 0.00 0.00 0.00 67 1013.7
20260905180022 90 215 4.0 11.0 0.00 0.00 0.00 70 1014.1
20260905174531 90 171 4.0 9.0 0.00 0.00 0.00 72 1014.3
20260905173025 89 155 3.0 9.0 0.00 0.00 0.00 71 1014.4
20260905171520 91 134 2.0 10.0 0.00 0.00 0.00 66 1014.6
20260905170017 90 117 3.0 10.0 0.00 0.00 0.00 68 1014.7
20260905164514 89 167 3.0 9.0 0.00 0.00 0.00 71 1014.9
20260905163011 88 193 1.0 6.0 0.00 0.00 0.00 75 1014.9
20260905161509 88 114 2.0 7.0 0.00 0.00 0.00 76 1014.9
20260905160013 88 204 3.0 9.0 0.00 0.00 0.00 78 1015.0
20260905154505 86 209 3.0 7.0 0.00 0.00 0.00 83 1014.9
20260905153008 86 265 3.0 7.0 0.00 0.00 0.00 84 1014.8
20260905151502 85 170 4.0 7.0 0.00 0.00 0.00 86 1014.9
20260905150101 85 182 1.0 6.0 0.00 0.00 0.00 88 1015.0
20260905144557 85 140 3.0 5.0 0.00 0.00 0.00 89 1015.0
20260905143055 84 138 0.0 4.0 0.00 0.00 0.00 91 1014.9
20260905141608 82 99 0.0 3.0 0.00 0.00 0.00 95 1015.0
20260905140058 81 84 1.0 3.0 0.00 0.00 0.00 98 1014.9
20260905134557 80 97 1.0 4.0 0.00 0.00 0.00 100 1014.8
20260905133052 78 51 2.0 4.0 0.00 0.00 0.00 100 1014.6
20260905131552 77 59 1.0 3.0 0.00 0.00 0.00 100 1014.6
20260905130035 76 74 1.0 4.0 0.00 0.00 0.00 100 1014.4
20260905124534 75 55 1.0 3.0 0.00 0.00 0.00 100 1014.3
20260905123033 75 57 2.0 4.0 0.00 0.00 0.00 100 1014.1
20260905121532 75 42 2.0 4.0 0.00 0.00 0.00 99 1014.1
20260905120030 75 53 2.0 5.0 0.00 0.00 0.00 99 1013.9
20260905114545 75 21 2.0 4.0 0.00 0.01 0.00 99 1013.8
20260905113028 75 32 0.0 0.0 0.00 0.01 0.00 100 1013.6
20260905111527 75 32 0.0 0.0 0.00 0.01 0.00 99 1013.4
20260905110027 75 32 0.0 0.0 0.00 0.01 0.00 99 1013.3
20260905104532 75 32 0.0 3.0 0.00 0.01 0.00 99 1013.2
20260905103032 75 32 2.0 4.0 0.00 0.01 0.00 99 1013.1
20260905101525 75 41 0.0 0.0 0.00 0.01 0.00 99 1013.2
20260905100024 75 41 0.0 2.0 0.00 0.01 0.00 99 1013.1
20260905094522 76 36 2.0 4.0 0.00 0.01 0.00 98 1013.2
20260905093025 76 15 0.0 0.0 0.00 0.01 0.00 99 1013.1
20260905091520 76 15 0.0 0.0 0.00 0.01 0.00 98 1013.3
20260905090019 77 15 0.0 0.0 0.00 0.01 0.00 98 1013.3
20260905084519 77 14 0.0 0.0 0.00 0.01 0.00 98 1013.2
20260905083017 77 46 0.0 0.0 0.00 0.01 0.00 98 1013.4
20260905081517 77 105 0.0 0.0 0.00 0.01 0.00 98 1013.2
20260905080021 77 105 0.0 0.0 0.00 0.01 0.00 98 1013.0
20260905074517 77 105 0.0 0.0 0.00 0.01 0.00 98 1013.4
20260905073012 77 105 0.0 0.0 0.00 0.01 0.00 97 1013.3
20260905071510 77 105 0.0 0.0 0.00 0.01 0.00 98 1013.7
20260905070008 77 105 0.0 0.0 0.00 0.01 0.00 97 1013.6